SCP
0 0 0 0 0 0 0 0 0 0 0 0 0 0 0 0 0 0 0 0 0 0 0 0 0 0 0 0 0 0 0 0 0 0 0 0 0 0 0 0 0 0 0 0 0 0 0 0 0 0 0 0 0 0
0 0 0 0 0 0 0 0 0 0 0 0 0 0 0 0 0 0 0 0 0 0 0 0 0 0 0 0 0 0 0 0 0 0 0 0 0 0 0 0 0 0 0 0 0 0 0 0 0 0 0 0 0 0
0 0 0 0 0 0 0 0 0 0 0 0 0 0 0 0 0 0 0 0 0 0 0 0 0 0 0 0 0 0 0 0 0 0 0 0 0 0 0 0 0 0 0 0 0 0 0 0 0 0 0 0 0 0
0 0 0 0 0 0 0 0 0 0 0 0 0 0 0 0 0 0 0 0 0 0 0 0 0 0 -0 0 0 0 0 0 0 0 0 0 0 0 0 0 0 0 0 0 0 0 0 0 0 0 0 0 0 0
0 0 0 0 0 0 0 0 0 0 0 0 0 0 0 0 0 0 0 0 0 0 0 0 0 0 0 0 0 0 0 0 0 0 0 0 0 0 0 0 0 0 0 0 0 0 0 0 0 0 0 0 0 0
0 0 0 0 0 0 0 0 0 0 0 0 0 0 0 0 0 0 0 0 0 0 0 0 0 0 0 0 0 0 0 0 0 0 0 0 0 0 0 0 0 0 0 0 0 0 0 0 0 0 0 0 0 0
0 0 0 0 0 0 0 0 0 0 0 0 0 0 0 0 0 0 0 0 0 0 0 0 0 0 0 0 0 0 0 0 0 0 0 0 0 0 0 0 0 0 0 0 0 0 0 0 0 0 0 0 0 0
0 0 0 0 0 0 0 0 0 0 0 0 0 0 0 0 0 0 0 0 0 0 0 0 0 0 0 0 0 0 0 0 0 0 0 0 0 0 0 0 -0 -0 0 0 0 0 0 0 0 0 0 0 0 0
0 0 0 0 0 0 0 0 0 0 0 0 0 0 0 0 0 0 0 0 0 0 0 0 0 0 0 0 0 0 0 0 0 0 0 0 0 0 0 0 0 0 0 0 0 0 0 0 0 0 0 0 0 0
0 0 0 0 0 0 0 0 0 0 0 0 0 0 0 0 0 0 0 0 0 0 0 0 0 0 0 0 0 0 0 0 0 0 0 0 0 -0 -0 -0 -0 0 0 0 0 0 0 0 0 0 0 0 0 0
0 0 0 0 0 0 0 0 0 0 0 0 0 0 0 0 0 0 0 0 0 0 0 0 0 0 0 0 0 0 0 0 0 0 0 0 0 0 -0 -0 0 0 0 0 0 0 0 0 0 0 0 0 0 0
0 0 0 0 0 0 0 0 0 0 0 0 0 0 0 0 0 0 0 0 0 0 0 0 0 0 0 0 0 0 0 0 0 0 0 0 0 -0 -0 0 0 0 0 0 0 0 0 0 0 0 0 0 0 0
0 0 0 0 0 0 0 0 0 0 0 0 0 0 0 0 0 0 0 0 0 0 0 0 0 0 0 0 0 0 0 0 0 0 0 0 0 0 0 0 0 0 0 0 0 0 0 0 0 0 0 0 0 0
0 0 0 0 0 0 0 0 0 0 0 0 0 0 0 0 0 0 0 0 0 0 0 0 0 0 0 0 0 0 0 0 0 0 0 0 0 0 0 0 0 0 0 0 0 0 0 0 0 0 0 0 0 0
0 0 0 0 0 0 0 0 0 0 0 0 0 0 0 0 0 0 0 0 0 -0 0 0 0 -0 0 0 0 0 0 0 0 0 0 -0 0 0 0 0 0 0 0 0 0 0 0 0 0 0 0 0 0 0
0 0 0 0 0 0 0 0 0 0 0 0 0 0 0 0 0 0 0 0 0 0 0 0 0 0 0 0 0 0 0 0 0 0 0 0 0 -0 0 0 0 0 0 0 0 0 0 0 0 0 0 0 0 0
0 0 0 0 0 0 0 0 0 0 0 0 0 0 0 0 0 0 -0 -0 0 0 0 0 0 0 0 0 0 0 0 0 0 -0 -0 -0 -0 0 0 0 0 0 0 0 0 0 0 0 0 0 0 0 0 0
0 0 0 0 0 0 0 0 0 -0 0 0 0 0 0 0 0 -0 -0 0 -0 0 0 0 0 0 0 0 0 0 0 0 0 -0 -0 -0 0 0 -0 0 -0 0 0 0 0 0 0 0 0 0 0 0 0 0
0 0 0 0 0 0 -0 0 0 0 0 0 0 0 0 0 0 0 0 -0 0 0 0 -0 0 0 0 0 0 0 -0 -0 -0 -0 -0 -0 -0 -0 -0 0 0 0 0 0 0 0 0 0 0 0 0 0 0 0
-0 -0 -0 -0 -0 -0 -0 0 0 0 0 0 0 0 0 0 -0 0 0 -0 0 0 0 0 0 0 0 0 -0 -0 -0 -0 -0 0 0 -0 -0 0 0 0 0 0 0 0 0 0 0 0 0 0 0 0 0 0
-0 -0 -0 -0 -0 -0 0 0 0 0 0 0 0 0 0 0 0 0 0 0 0 0 0 0 0 0 0 0 -0 -0 -0 -0 0 0 -0 -0 -0 -0 0 0 0 0 0 0 0 0 0 0 0 0 0 0 0 0
-0 -0 -0 -0 -0 0 0 0 0 0 0 0 0 0 0 0 0 0 0 0 0 0 0 0 0 0 0 -0 -0 -0 -0 0 0 0 -0 -0 -0 0 0 0 0 0 0 0 0 0 0 0 0 0 0 0 0 0
-0 -0 -0 0 0 0 0 0 0 0 0 0 0 0 0 0 0 0 0 0 0 0 0 0 0 -0 -0 -0 -0 0 0 0 0 0 -0 -0 0 0 0 0 0 0 0 0 0 0 0 0 0 0 0 0 0 0
0 -0 -0 0 0 0 0 0 0 0 0 0 0 0 0 0 0 0 0 0 0 0 0 -0 -0 -0 -0 0 0 0 0 0 0 -0 -0 -0 0 0 0 0 0 0 0 0 0 0 0 0 0 0 0 0 0 0
-0 -0 0 0 0 0 0 0 0 0 0 0 0 0 0 0 0 0 0 0 0 0 0 0 -0 0 0 0 0 0 0 0 -0 -0 0 -0 0 0 0 0 0 0 0 0 0 0 0 0 0 0 0 0 0 0
-0 0 0 0 0 0 0 0 0 0 0 0 0 0 0 0 0 0 0 0 0 0 0 0 0 0 0 0 0 0 0 -0 -0 -0 -0 -0 -0 -0 -0 0 -0 0 0 0 0 0 0 0 0 0 0 0 0 0
-0 0 0 0 0 0 0 0 0 0 0 0 0 0 0 0 0 0 0 0 0 0 0 0 0 0 0 0 0 0 0 -0 0 0 -0 -0 -0 0 0 -0 0 -0 0 0 0 0 0 0 0 0 0 0 0 -0
0 0 -0 0 0 0 0 -0 0 -0 -0 0 0 0 0 0 0 -0 -0 0 0 0 0 0 0 0 0 0 0 0 0 0 0 0 0 0 0 0 0 -0 -0 0 -0 0 0 0 -0 -0 -0 0 0 0 0 0
0 0 0 0 0 0 0 0 0 0 0 -0 -0 0 -0 0 -0 -0 0 0 0 0 0 0 0 0 0 0 0 0 0 0 -0 -0 -0 0 0 0 -0 -0 -0 -0 0 0 -0 -0 -0 -0 -0 -0 0 0 0 0
0 0 0 0 0 0 0 0 0 0 0 0 0 -0 0 -0 0 0 0 0 0 0 0 0 0 0 0 0 0 0 0 0 0 0 -0 -0 0 -0 -0 -0 -0 -0 -0 -0 -0 -0 -0 -0 -0 -0 -0 -0 -0 0
0 0 0 0 0 0 0 0 0 0 0 0 0 -0 0 -0 0 0 0 0 0 0 0 0 0 0 0 0 0 0 0 0 -0 0 0 0 0 -0 -0 -0 -0 -0 -0 -0 -0 -0 -0 -0 -0 -0 -0 -0 -0 -0
0 0 0 0 0 0 0 0 0 0 0 0 -0 0 0 0 0 0 0 0 0 0 0 0 -0 0 0 0 0 0 0 0 0 -0 -0 -0 -0 -0 -0 -0 -0 -0 -0 -0 -0 -0 -0 -0 -0 -0 -0 0 -0 -0
0 0 0 -0 0 0 0 0 0 0 0 0 -0 0 0 0 0 0 0 0 0 0 0 0 0 0 0 -0 -0 -0 -0 -0 -0 -0 -0 -0 -0 0 0 0 0 0 0 -0 -0 -0 -0 -0 -0 -0 -0 -0 -0 -0
Wind_Speed_500mb
51 55 59 60 64 72 63 46 36 29 19 4 3 9 11 14 12 8 9 11 9 8 15 23 20 9 9 5 4 9 7 2 1 3 4 1 4 4 5 1 5 11 13 9 10 9 15 20 16 10 7 5 11 15
54 57 58 59 63 69 56 38 28 22 11 8 9 10 15 20 12 7 7 11 15 14 13 20 33 33 32 30 19 9 2 4 0 1 1 3 4 3 2 3 3 7 6 2 12 6 4 21 2 5 10 20 15 13
57 55 55 57 62 62 40 27 20 13 10 10 11 15 20 18 9 7 7 11 10 16 19 11 2 13 14 10 12 12 7 5 2 1 3 2 5 1 4 4 6 7 6 6 4 3 11 15 19 23 20 24 20 21
59 59 57 55 54 47 27 25 12 5 9 11 13 16 14 10 7 9 10 9 10 5 7 5 7 7 13 11 7 32 11 4 2 2 1 1 4 5 4 6 7 7 5 6 11 21 21 13 15 12 18 24 28 33
58 54 51 50 45 29 20 14 10 11 12 11 13 12 9 6 9 16 14 12 15 7 5 15 17 2 10 12 12 16 22 15 7 3 3 4 3 4 4 5 10 11 8 9 7 7 5 13 11 26 31 30 28 31
50 46 42 36 22 16 16 15 14 16 14 9 7 8 10 12 15 16 5 6 15 16 5 5 8 2 6 15 17 20 19 11 3 4 5 6 7 5 4 6 9 17 16 15 7 13 28 35 35 29 30 32 35 35
42 35 31 22 19 17 13 13 16 17 15 9 12 14 14 19 20 11 4 2 8 12 5 7 6 2 6 21 18 17 16 9 8 5 5 5 5 8 4 8 8 9 8 14 22 25 21 12 20 27 23 24 29 33
28 24 20 18 17 16 13 11 10 11 9 12 15 17 21 23 17 12 19 16 12 9 6 4 5 4 12 7 9 15 9 10 6 3 3 5 3 7 9 29 25 23 22 20 3 16 22 23 18 16 24 24 28 27
20 19 18 18 15 13 13 12 13 13 16 18 18 16 9 5 2 3 9 23 16 10 5 6 4 5 8 8 8 11 10 5 5 5 7 8 6 10 17 19 18 18 11 18 15 12 8 5 16 21 26 30 30 30
17 17 17 17 17 16 16 16 20 16 13 10 8 5 5 9 12 11 8 10 12 7 10 9 6 5 7 14 12 8 7 4 4 5 6 5 9 36 36 37 27 17 13 12 7 9 9 12 17 23 29 32 29 31
17 18 18 18 19 20 19 15 10 8 8 12 8 7 6 12 9 5 5 7 9 7 11 12 24 9 9 4 4 8 3 3 4 6 4 4 6 9 7 3 5 7 8 6 4 8 14 12 15 26 36 33 30 28
17 19 20 20 17 14 11 8 7 11 13 12 8 8 9 13 7 6 6 7 9 7 9 8 10 20 6 7 5 8 5 6 5 12 4 5 7 13 7 3 3 5 4 5 6 13 18 14 21 24 27 28 31 28
13 12 11 10 10 8 7 7 9 16 15 11 5 4 6 6 6 9 11 6 5 6 10 10 6 11 6 8 3 4 7 5 1 4 5 7 6 5 3 8 2 4 4 7 10 11 12 14 20 22 27 28 30 30
10 10 8 7 6 5 5 8 11 21 13 6 6 5 8 7 7 7 5 3 6 5 9 16 6 4 6 6 5 6 5 3 4 5 7 2 11 10 11 8 6 3 4 6 7 7 12 16 14 16 23 28 29 29
13 10 6 5 7 8 5 6 13 24 8 5 3 6 9 8 8 9 13 12 8 9 11 13 6 9 6 5 8 5 6 6 6 5 3 16 17 9 9 5 4 5 2 7 5 5 9 15 8 14 20 26 30 38
18 15 13 13 11 6 5 5 13 18 6 5 8 7 10 9 7 3 9 12 9 15 16 8 7 7 7 5 7 9 5 8 3 5 12 16 9 8 9 3 7 4 3 8 4 6 7 10 6 10 13 16 24 31
17 14 14 11 9 7 10 14 9 6 6 6 9 15 20 21 22 22 14 13 20 15 3 5 6 4 9 7 7 7 7 4 15 5 3 20 16 13 4 6 10 2 9 5 6 7 8 7 3 9 16 15 20 23
18 17 11 5 4 3 6 7 3 5 9 12 11 9 13 20 20 20 20 17 16 8 4 4 2 7 7 7 5 5 8 9 9 10 11 14 18 1 8 10 6 2 4 4 7 6 9 10 5 5 14 13 17 20
16 16 9 6 3 6 3 3 5 6 12 12 16 24 20 20 27 27 22 20 15 17 11 4 4 5 5 8 6 5 5 2 13 25 16 11 8 10 11 6 5 2 7 6 8 14 16 13 10 9 15 20 17 17
15 16 9 3 0 2 1 4 6 7 8 6 14 14 12 14 18 15 10 17 23 7 6 4 7 5 6 7 7 9 4 13 30 15 6 3 13 19 10 9 4 12 8 10 12 14 18 20 20 18 18 16 16 17
13 11 8 4 2 5 5 6 7 7 9 10 14 12 15 18 16 13 8 17 14 8 8 12 16 15 15 15 14 9 5 31 8 8 5 5 15 13 12 2 14 9 9 11 12 16 18 19 19 21 22 25 23 19
9 10 6 3 1 3 8 9 7 7 7 11 14 7 10 9 6 7 12 12 9 20 24 26 31 31 25 15 10 10 26 9 5 6 6 11 13 14 11 19 15 11 13 11 8 8 13 17 15 17 16 18 21 23
8 3 2 3 4 5 6 6 6 5 6 6 8 6 6 5 3 9 6 9 12 21 23 23 20 14 6 8 20 3 3 9 5 4 18 13 17 15 21 20 14 9 8 8 9 9 12 8 9 13 14 18 19 18
1 2 3 4 5 6 4 6 7 7 6 5 4 5 6 4 3 5 4 3 6 5 1 4 6 5 11 13 7 8 6 2 5 18 17 16 20 27 21 16 11 11 12 11 11 11 11 12 14 12 12 15 16 16
3 5 4 5 6 5 5 5 6 6 5 5 4 5 1 3 2 2 1 4 5 8 9 8 5 5 5 6 5 5 5 7 11 23 22 13 31 33 24 16 18 20 18 17 16 16 17 18 16 12 13 12 13 16
4 5 7 3 2 4 4 5 4 7 6 4 2 11 6 3 4 2 3 7 8 8 7 2 2 5 4 4 6 1 6 16 20 20 20 18 27 26 19 17 20 21 19 16 16 19 19 14 13 11 13 16 13 15
4 3 4 8 6 5 7 8 10 7 5 6 7 9 6 4 7 4 11 20 15 11 11 16 16 24 13 6 3 18 24 27 25 22 22 24 29 21 14 14 15 18 18 17 17 16 13 10 12 15 15 11 13 17
6 4 5 10 8 5 4 6 4 3 4 5 9 4 7 3 3 9 17 16 13 7 4 9 22 23 15 20 27 29 29 27 28 25 30 28 25 18 15 18 16 17 13 15 13 13 12 14 14 13 13 16 16 13
5 3 3 9 1 4 5 4 4 5 5 4 5 5 8 7 13 16 15 13 4 2 18 32 12 15 22 27 26 22 18 22 27 29 26 25 20 17 17 14 15 14 13 13 15 12 12 15 15 15 14 12 10 10
4 5 7 5 5 3 5 9 7 6 6 10 11 9 13 10 8 9 9 13 10 20 27 16 12 18 23 24 26 27 24 15 9 11 20 21 19 19 19 16 13 9 10 10 10 13 13 6 5 8 12 13 10 7
6 5 6 6 5 4 10 7 6 6 6 11 14 14 14 7 7 8 1 7 21 26 27 14 14 17 16 17 17 18 21 24 29 32 32 27 22 19 18 19 13 12 15 18 15 12 8 8 8 7 8 10 11 14
4 4 5 4 3 9 5 2 4 2 4 8 9 19 28 19 16 24 12 22 28 32 21 23 29 35 27 20 17 15 14 14 14 18 19 16 14 15 18 16 11 10 11 11 7 10 10 4 3 4 8 11 13 12
5 5 4 4 3 4 7 5 2 2 3 5 10 8 12 10 14 22 32 29 28 28 26 34 23 15 16 21 22 22 20 16 11 8 5 7 15 15 11 9 9 8 7 7 6 7 5 4 2 1 1 5 9 5
Wind_Direction_500mb
295 297 302 303 308 318 321 315 313 315 321 333 275 290 312 312 306 298 288 220 201 247 269 260 264 210 189 193 291 315 300 51 293 250 281 354 272 29 282 238 191 183 179 188 194 215 262 147 144 222 67 162 236 269
290 293 295 300 310 315 314 309 307 307 302 273 271 281 290 303 297 290 270 236 229 250 264 266 271 270 261 270 258 232 273 285 54 51 209 279 263 250 306 237 185 222 239 231 214 230 14 191 272 248 284 287 268 288
285 290 294 300 306 314 306 301 304 296 267 270 284 262 276 281 284 287 273 255 260 276 298 276 340 159 200 268 244 201 214 224 211 155 123 61 271 256 259 247 285 205 192 238 271 140 240 248 264 272 290 279 263 281
286 289 292 295 302 306 293 294 277 272 276 276 270 268 268 264 299 305 291 263 225 277 298 278 205 289 275 273 228 205 208 239 222 165 156 233 267 201 270 310 264 281 200 241 264 274 276 272 242 296 307 301 283 290
282 281 282 289 298 286 276 269 252 232 260 261 273 260 243 229 331 312 293 250 224 219 284 295 303 260 240 236 185 191 209 225 214 226 194 243 244 217 234 275 248 215 228 207 245 3 289 300 276 302 298 300 296 299
277 275 278 286 278 265 268 266 252 239 242 251 253 272 270 287 301 309 292 260 227 213 292 296 306 312 348 168 172 181 182 182 180 210 219 238 231 220 266 263 254 224 237 241 262 294 291 291 297 307 302 298 302 303
270 263 269 260 249 254 251 254 253 247 225 207 256 262 276 282 279 268 249 184 149 179 245 285 289 353 144 147 144 164 198 215 217 222 223 257 215 199 252 257 257 216 255 267 277 291 295 293 304 313 304 301 306 308
247 244 236 234 234 240 236 234 232 213 219 255 261 271 274 282 283 261 227 206 192 207 239 259 264 260 184 183 171 183 195 218 241 226 219 225 203 216 253 245 267 281 290 292 274 298 290 306 320 336 335 330 327 324
217 221 223 218 214 218 226 234 236 254 262 261 265 273 265 190 116 339 204 191 211 230 264 220 242 171 174 173 157 168 187 219 187 224 212 190 204 229 236 255 274 298 282 291 314 324 326 346 345 350 350 342 332 332
206 205 207 213 219 224 236 247 259 263 253 238 197 174 165 153 162 136 122 170 219 232 232 242 240 229 207 188 186 167 177 217 225 199 161 234 255 258 264 266 283 308 323 330 338 348 349 353 359 353 348 340 332 332
197 208 215 223 237 249 254 257 250 232 208 170 176 168 182 173 172 198 210 208 197 235 216 229 217 222 202 188 169 210 171 211 244 137 235 244 265 251 240 238 332 352 1 19 0 8 358 359 351 348 349 348 343 338
224 236 239 240 242 242 242 238 213 187 173 174 171 201 214 194 180 225 207 209 206 244 201 208 209 199 188 179 179 186 221 183 241 143 222 247 253 262 245 273 330 357 18 356 28 28 359 0 357 354 359 3 356 347
224 219 213 210 216 220 216 192 182 177 168 164 198 208 202 192 199 218 201 199 221 210 193 178 163 163 151 185 153 208 214 214 141 216 238 235 276 299 316 310 346 85 64 56 26 359 7 355 360 14 12 3 1 1
173 168 171 181 191 194 189 183 182 174 170 202 194 229 216 206 229 220 243 232 218 218 245 187 144 191 156 161 135 174 176 231 228 225 233 345 357 359 346 351 81 74 56 26 349 20 8 3 12 24 13 14 11 16
141 134 136 148 152 137 137 188 182 178 187 212 196 234 234 260 260 285 281 280 281 268 201 160 154 167 168 161 189 154 191 237 235 242 316 331 330 331 346 25 99 84 64 336 302 336 358 356 42 33 24 28 37 45
133 108 107 110 112 122 166 163 164 171 203 234 226 247 254 270 261 321 311 299 307 304 193 182 174 173 178 181 164 213 202 224 178 224 286 310 305 341 331 339 150 70 349 335 348 317 344 1 63 37 35 38 24 25
149 134 132 109 97 93 129 144 151 189 221 238 243 240 257 272 270 274 266 287 290 296 186 217 193 182 129 185 201 194 219 204 186 227 28 339 330 297 309 154 132 105 21 64 31 57 31 9 26 19 358 35 27 21
156 145 139 130 167 166 156 172 200 224 253 252 253 268 247 252 264 264 258 263 313 302 215 243 301 198 180 193 208 230 226 222 260 310 304 321 325 124 133 138 169 176 18 65 43 38 8 354 345 342 10 51 34 38
162 161 163 183 202 191 142 205 234 253 248 263 268 275 268 269 276 270 255 234 268 269 275 242 222 229 220 220 249 251 248 235 330 329 305 257 282 158 132 123 153 53 137 97 74 59 48 53 56 23 27 32 46 42
166 165 171 189 268 116 207 244 235 256 271 293 274 269 263 266 283 296 289 225 196 233 209 233 237 230 232 313 299 289 235 331 333 331 356 130 146 142 138 111 74 134 111 113 104 65 67 69 70 68 62 55 56 54
151 183 206 233 303 233 228 230 240 261 284 266 278 286 283 271 265 260 239 192 196 209 240 241 266 296 304 311 300 266 251 336 269 339 303 56 143 167 177 104 147 133 114 120 117 91 79 69 69 68 70 68 66 60
135 141 112 92 306 260 264 235 234 256 263 267 293 265 271 280 247 214 186 185 230 241 240 255 273 284 294 307 302 262 294 252 280 5 112 179 181 175 150 143 140 127 126 123 126 104 120 97 77 70 65 58 54 52
116 124 202 232 248 241 258 249 257 241 255 282 301 281 255 266 261 173 227 220 236 251 253 265 280 279 266 335 318 197 346 348 345 159 170 157 153 144 145 142 135 131 120 111 127 131 119 83 74 65 67 66 61 62
354 252 232 229 225 273 268 237 229 257 262 248 242 267 247 248 193 229 256 280 324 40 50 273 262 233 296 290 288 315 336 36 75 139 145 139 147 143 138 129 123 120 111 97 115 113 101 80 80 67 93 81 66 64
279 222 231 259 226 249 249 258 231 223 252 236 263 240 312 344 218 324 280 310 23 18 360 339 301 278 234 166 213 301 270 149 144 139 138 139 148 140 134 125 113 107 95 100 103 113 104 88 80 85 84 81 71 63
260 214 197 241 215 227 310 291 297 311 299 247 311 317 291 165 191 123 18 328 290 38 13 348 207 351 139 227 348 310 159 155 142 134 136 137 150 143 136 125 114 114 106 98 91 106 102 92 71 68 80 77 83 69
314 260 265 250 259 278 278 273 272 278 310 341 340 329 319 21 47 58 17 2 360 14 36 21 107 107 97 59 24 112 122 132 130 124 126 136 160 148 133 125 119 113 110 113 109 108 89 76 73 85 67 72 98 99
259 286 302 327 287 232 263 273 286 308 289 315 312 331 360 1 360 348 333 342 354 13 85 51 91 88 96 100 100 111 120 131 135 126 123 126 141 150 134 127 120 125 117 120 113 113 84 88 92 89 70 77 92 113
255 264 325 283 258 223 236 250 262 262 299 312 308 329 337 339 330 333 334 336 349 86 116 130 94 44 87 87 91 99 113 146 154 145 139 139 143 149 149 145 140 131 118 132 118 118 107 83 79 70 68 67 62 111
246 218 240 247 247 253 234 195 219 243 311 318 301 294 301 317 330 339 30 56 121 141 138 133 68 97 112 105 99 93 88 82 111 157 156 155 149 143 141 135 133 131 151 153 139 136 138 90 90 68 52 57 70 72
280 261 252 244 274 325 306 250 292 285 303 304 297 298 324 354 289 352 291 80 133 148 142 125 85 112 126 131 127 120 112 105 102 107 115 121 129 135 138 139 124 100 122 137 136 142 147 113 99 86 43 46 68 69
271 264 300 304 353 355 23 278 316 25 107 350 20 34 23 12 2 25 112 155 135 144 126 112 103 91 93 95 101 123 141 147 146 144 136 133 137 140 141 147 136 122 131 154 140 142 143 112 106 68 49 88 69 61
288 312 306 312 332 7 352 335 312 6 75 39 31 38 9 21 29 34 66 137 154 163 130 124 108 94 102 82 85 84 90 99 105 112 117 172 195 204 190 161 155 153 153 166 161 151 148 151 123 49 71 33 28 108
Wind_Speed_850mb
51 55 59 60 64 72 63 46 36 29 19 4 3 9 11 14 12 8 9 11 9 8 15 23 20 9 9 5 4 9 7 2 1 3 4 1 4 4 5 1 5 11 13 9 10 9 15 20 16 10 7 5 11 15
54 57 58 59 63 69 56 38 28 22 11 8 9 10 15 20 12 7 7 11 15 14 13 20 33 33 32 30 19 9 2 4 0 1 1 3 4 3 2 3 3 7 6 2 12 6 4 21 2 5 10 20 15 13
57 55 55 57 62 62 40 27 20 13 10 10 11 15 20 18 9 7 7 11 10 16 19 11 2 13 14 10 12 12 7 5 2 1 3 2 5 1 4 4 6 7 6 6 4 3 11 15 19 23 20 24 20 21
59 59 57 55 54 47 27 25 12 5 9 11 13 16 14 10 7 9 10 9 10 5 7 5 7 7 13 11 7 32 11 4 2 2 1 1 4 5 4 6 7 7 5 6 11 21 21 13 15 12 18 24 28 33
58 54 51 50 45 29 20 14 10 11 12 11 13 12 9 6 9 16 14 12 15 7 5 15 17 2 10 12 12 16 22 15 7 3 3 4 3 4 4 5 10 11 8 9 7 7 5 13 11 26 31 30 28 31
50 46 42 36 22 16 16 15 14 16 14 9 7 8 10 12 15 16 5 6 15 16 5 5 8 2 6 15 17 20 19 11 3 4 5 6 7 5 4 6 9 17 16 15 7 13 28 35 35 29 30 32 35 35
42 35 31 22 19 17 13 13 16 17 15 9 12 14 14 19 20 11 4 2 8 12 5 7 6 2 6 21 18 17 16 9 8 5 5 5 5 8 4 8 8 9 8 14 22 25 21 12 20 27 23 24 29 33
28 24 20 18 17 16 13 11 10 11 9 12 15 17 21 23 17 12 19 16 12 9 6 4 5 4 12 7 9 15 9 10 6 3 3 5 3 7 9 29 25 23 22 20 3 16 22 23 18 16 24 24 28 27
20 19 18 18 15 13 13 12 13 13 16 18 18 16 9 5 2 3 9 23 16 10 5 6 4 5 8 8 8 11 10 5 5 5 7 8 6 10 17 19 18 18 11 18 15 12 8 5 16 21 26 30 30 30
17 17 17 17 17 16 16 16 20 16 13 10 8 5 5 9 12 11 8 10 12 7 10 9 6 5 7 14 12 8 7 4 4 5 6 5 9 36 36 37 27 17 13 12 7 9 9 12 17 23 29 32 29 31
17 18 18 18 19 20 19 15 10 8 8 12 8 7 6 12 9 5 5 7 9 7 11 12 24 9 9 4 4 8 3 3 4 6 4 4 6 9 7 3 5 7 8 6 4 8 14 12 15 26 36 33 30 28
17 19 20 20 17 14 11 8 7 11 13 12 8 8 9 13 7 6 6 7 9 7 9 8 10 20 6 7 5 8 5 6 5 12 4 5 7 13 7 3 3 5 4 5 6 13 18 14 21 24 27 28 31 28
13 12 11 10 10 8 7 7 9 16 15 11 5 4 6 6 6 9 11 6 5 6 10 10 6 11 6 8 3 4 7 5 1 4 5 7 6 5 3 8 2 4 4 7 10 11 12 14 20 22 27 28 30 30
10 10 8 7 6 5 5 8 11 21 13 6 6 5 8 7 7 7 5 3 6 5 9 16 6 4 6 6 5 6 5 3 4 5 7 2 11 10 11 8 6 3 4 6 7 7 12 16 14 16 23 28 29 29
13 10 6 5 7 8 5 6 13 24 8 5 3 6 9 8 8 9 13 12 8 9 11 13 6 9 6 5 8 5 6 6 6 5 3 16 17 9 9 5 4 5 2 7 5 5 9 15 8 14 20 26 30 38
18 15 13 13 11 6 5 5 13 18 6 5 8 7 10 9 7 3 9 12 9 15 16 8 7 7 7 5 7 9 5 8 3 5 12 16 9 8 9 3 7 4 3 8 4 6 7 10 6 10 13 16 24 31
17 14 14 11 9 7 10 14 9 6 6 6 9 15 20 21 22 22 14 13 20 15 3 5 6 4 9 7 7 7 7 4 15 5 3 20 16 13 4 6 10 2 9 5 6 7 8 7 3 9 16 15 20 23
18 17 11 5 4 3 6 7 3 5 9 12 11 9 13 20 20 20 20 17 16 8 4 4 2 7 7 7 5 5 8 9 9 10 11 14 18 1 8 10 6 2 4 4 7 6 9 10 5 5 14 13 17 20
16 16 9 6 3 6 3 3 5 6 12 12 16 24 20 20 27 27 22 20 15 17 11 4 4 5 5 8 6 5 5 2 13 25 16 11 8 10 11 6 5 2 7 6 8 14 16 13 10 9 15 20 17 17
15 16 9 3 0 2 1 4 6 7 8 6 14 14 12 14 18 15 10 17 23 7 6 4 7 5 6 7 7 9 4 13 30 15 6 3 13 19 10 9 4 12 8 10 12 14 18 20 20 18 18 16 16 17
13 11 8 4 2 5 5 6 7 7 9 10 14 12 15 18 16 13 8 17 14 8 8 12 16 15 15 15 14 9 5 31 8 8 5 5 15 13 12 2 14 9 9 11 12 16 18 19 19 21 22 25 23 19
9 10 6 3 1 3 8 9 7 7 7 11 14 7 10 9 6 7 12 12 9 20 24 26 31 31 25 15 10 10 26 9 5 6 6 11 13 14 11 19 15 11 13 11 8 8 13 17 15 17 16 18 21 23
8 3 2 3 4 5 6 6 6 5 6 6 8 6 6 5 3 9 6 9 12 21 23 23 20 14 6 8 20 3 3 9 5 4 18 13 17 15 21 20 14 9 8 8 9 9 12 8 9 13 14 18 19 18
1 2 3 4 5 6 4 6 7 7 6 5 4 5 6 4 3 5 4 3 6 5 1 4 6 5 11 13 7 8 6 2 5 18 17 16 20 27 21 16 11 11 12 11 11 11 11 12 14 12 12 15 16 16
3 5 4 5 6 5 5 5 6 6 5 5 4 5 1 3 2 2 1 4 5 8 9 8 5 5 5 6 5 5 5 7 11 23 22 13 31 33 24 16 18 20 18 17 16 16 17 18 16 12 13 12 13 16
4 5 7 3 2 4 4 5 4 7 6 4 2 11 6 3 4 2 3 7 8 8 7 2 2 5 4 4 6 1 6 16 20 20 20 18 27 26 19 17 20 21 19 16 16 19 19 14 13 11 13 16 13 15
4 3 4 8 6 5 7 8 10 7 5 6 7 9 6 4 7 4 11 20 15 11 11 16 16 24 13 6 3 18 24 27 25 22 22 24 29 21 14 14 15 18 18 17 17 16 13 10 12 15 15 11 13 17
6 4 5 10 8 5 4 6 4 3 4 5 9 4 7 3 3 9 17 16 13 7 4 9 22 23 15 20 27 29 29 27 28 25 30 28 25 18 15 18 16 17 13 15 13 13 12 14 14 13 13 16 16 13
5 3 3 9 1 4 5 4 4 5 5 4 5 5 8 7 13 16 15 13 4 2 18 32 12 15 22 27 26 22 18 22 27 29 26 25 20 17 17 14 15 14 13 13 15 12 12 15 15 15 14 12 10 10
4 5 7 5 5 3 5 9 7 6 6 10 11 9 13 10 8 9 9 13 10 20 27 16 12 18 23 24 26 27 24 15 9 11 20 21 19 19 19 16 13 9 10 10 10 13 13 6 5 8 12 13 10 7
6 5 6 6 5 4 10 7 6 6 6 11 14 14 14 7 7 8 1 7 21 26 27 14 14 17 16 17 17 18 21 24 29 32 32 27 22 19 18 19 13 12 15 18 15 12 8 8 8 7 8 10 11 14
4 4 5 4 3 9 5 2 4 2 4 8 9 19 28 19 16 24 12 22 28 32 21 23 29 35 27 20 17 15 14 14 14 18 19 16 14 15 18 16 11 10 11 11 7 10 10 4 3 4 8 11 13 12
5 5 4 4 3 4 7 5 2 2 3 5 10 8 12 10 14 22 32 29 28 28 26 34 23 15 16 21 22 22 20 16 11 8 5 7 15 15 11 9 9 8 7 7 6 7 5 4 2 1 1 5 9 5
Wind_Direction_850mb
295 297 302 303 308 318 321 315 313 315 321 333 275 290 312 312 306 298 288 220 201 247 269 260 264 210 189 193 291 315 300 51 293 250 281 354 272 29 282 238 191 183 179 188 194 215 262 147 144 222 67 162 236 269
290 293 295 300 310 315 314 309 307 307 302 273 271 281 290 303 297 290 270 236 229 250 264 266 271 270 261 270 258 232 273 285 54 51 209 279 263 250 306 237 185 222 239 231 214 230 14 191 272 248 284 287 268 288
285 290 294 300 306 314 306 301 304 296 267 270 284 262 276 281 284 287 273 255 260 276 298 276 340 159 200 268 244 201 214 224 211 155 123 61 271 256 259 247 285 205 192 238 271 140 240 248 264 272 290 279 263 281
286 289 292 295 302 306 293 294 277 272 276 276 270 268 268 264 299 305 291 263 225 277 298 278 205 289 275 273 228 205 208 239 222 165 156 233 267 201 270 310 264 281 200 241 264 274 276 272 242 296 307 301 283 290
282 281 282 289 298 286 276 269 252 232 260 261 273 260 243 229 331 312 293 250 224 219 284 295 303 260 240 236 185 191 209 225 214 226 194 243 244 217 234 275 248 215 228 207 245 3 289 300 276 302 298 300 296 299
277 275 278 286 278 265 268 266 252 239 242 251 253 272 270 287 301 309 292 260 227 213 292 296 306 312 348 168 172 181 182 182 180 210 219 238 231 220 266 263 254 224 237 241 262 294 291 291 297 307 302 298 302 303
270 263 269 260 249 254 251 254 253 247 225 207 256 262 276 282 279 268 249 184 149 179 245 285 289 353 144 147 144 164 198 215 217 222 223 257 215 199 252 257 257 216 255 267 277 291 295 293 304 313 304 301 306 308
247 244 236 234 234 240 236 234 232 213 219 255 261 271 274 282 283 261 227 206 192 207 239 259 264 260 184 183 171 183 195 218 241 226 219 225 203 216 253 245 267 281 290 292 274 298 290 306 320 336 335 330 327 324
217 221 223 218 214 218 226 234 236 254 262 261 265 273 265 190 116 339 204 191 211 230 264 220 242 171 174 173 157 168 187 219 187 224 212 190 204 229 236 255 274 298 282 291 314 324 326 346 345 350 350 342 332 332
206 205 207 213 219 224 236 247 259 263 253 238 197 174 165 153 162 136 122 170 219 232 232 242 240 229 207 188 186 167 177 217 225 199 161 234 255 258 264 266 283 308 323 330 338 348 349 353 359 353 348 340 332 332
197 208 215 223 237 249 254 257 250 232 208 170 176 168 182 173 172 198 210 208 197 235 216 229 217 222 202 188 169 210 171 211 244 137 235 244 265 251 240 238 332 352 1 19 0 8 358 359 351 348 349 348 343 338
224 236 239 240 242 242 242 238 213 187 173 174 171 201 214 194 180 225 207 209 206 244 201 208 209 199 188 179 179 186 221 183 241 143 222 247 253 262 245 273 330 357 18 356 28 28 359 0 357 354 359 3 356 347
224 219 213 210 216 220 216 192 182 177 168 164 198 208 202 192 199 218 201 199 221 210 193 178 163 163 151 185 153 208 214 214 141 216 238 235 276 299 316 310 346 85 64 56 26 359 7 355 360 14 12 3 1 1
173 168 171 181 191 194 189 183 182 174 170 202 194 229 216 206 229 220 243 232 218 218 245 187 144 191 156 161 135 174 176 231 228 225 233 345 357 359 346 351 81 74 56 26 349 20 8 3 12 24 13 14 11 16
141 134 136 148 152 137 137 188 182 178 187 212 196 234 234 260 260 285 281 280 281 268 201 160 154 167 168 161 189 154 191 237 235 242 316 331 330 331 346 25 99 84 64 336 302 336 358 356 42 33 24 28 37 45
133 108 107 110 112 122 166 163 164 171 203 234 226 247 254 270 261 321 311 299 307 304 193 182 174 173 178 181 164 213 202 224 178 224 286 310 305 341 331 339 150 70 349 335 348 317 344 1 63 37 35 38 24 25
149 134 132 109 97 93 129 144 151 189 221 238 243 240 257 272 270 274 266 287 290 296 186 217 193 182 129 185 201 194 219 204 186 227 28 339 330 297 309 154 132 105 21 64 31 57 31 9 26 19 358 35 27 21
156 145 139 130 167 166 156 172 200 224 253 252 253 268 247 252 264 264 258 263 313 302 215 243 301 198 180 193 208 230 226 222 260 310 304 321 325 124 133 138 169 176 18 65 43 38 8 354 345 342 10 51 34 38
162 161 163 183 202 191 142 205 234 253 248 263 268 275 268 269 276 270 255 234 268 269 275 242 222 229 220 220 249 251 248 235 330 329 305 257 282 158 132 123 153 53 137 97 74 59 48 53 56 23 27 32 46 42
166 165 171 189 268 116 207 244 235 256 271 293 274 269 263 266 283 296 289 225 196 233 209 233 237 230 232 313 299 289 235 331 333 331 356 130 146 142 138 111 74 134 111 113 104 65 67 69 70 68 62 55 56 54
151 183 206 233 303 233 228 230 240 261 284 266 278 286 283 271 265 260 239 192 196 209 240 241 266 296 304 311 300 266 251 336 269 339 303 56 143 167 177 104 147 133 114 120 117 91 79 69 69 68 70 68 66 60
135 141 112 92 306 260 264 235 234 256 263 267 293 265 271 280 247 214 186 185 230 241 240 255 273 284 294 307 302 262 294 252 280 5 112 179 181 175 150 143 140 127 126 123 126 104 120 97 77 70 65 58 54 52
116 124 202 232 248 241 258 249 257 241 255 282 301 281 255 266 261 173 227 220 236 251 253 265 280 279 266 335 318 197 346 348 345 159 170 157 153 144 145 142 135 131 120 111 127 131 119 83 74 65 67 66 61 62
354 252 232 229 225 273 268 237 229 257 262 248 242 267 247 248 193 229 256 280 324 40 50 273 262 233 296 290 288 315 336 36 75 139 145 139 147 143 138 129 123 120 111 97 115 113 101 80 80 67 93 81 66 64
279 222 231 259 226 249 249 258 231 223 252 236 263 240 312 344 218 324 280 310 23 18 360 339 301 278 234 166 213 301 270 149 144 139 138 139 148 140 134 125 113 107 95 100 103 113 104 88 80 85 84 81 71 63
260 214 197 241 215 227 310 291 297 311 299 247 311 317 291 165 191 123 18 328 290 38 13 348 207 351 139 227 348 310 159 155 142 134 136 137 150 143 136 125 114 114 106 98 91 106 102 92 71 68 80 77 83 69
314 260 265 250 259 278 278 273 272 278 310 341 340 329 319 21 47 58 17 2 360 14 36 21 107 107 97 59 24 112 122 132 130 124 126 136 160 148 133 125 119 113 110 113 109 108 89 76 73 85 67 72 98 99
259 286 302 327 287 232 263 273 286 308 289 315 312 331 360 1 360 348 333 342 354 13 85 51 91 88 96 100 100 111 120 131 135 126 123 126 141 150 134 127 120 125 117 120 113 113 84 88 92 89 70 77 92 113
255 264 325 283 258 223 236 250 262 262 299 312 308 329 337 339 330 333 334 336 349 86 116 130 94 44 87 87 91 99 113 146 154 145 139 139 143 149 149 145 140 131 118 132 118 118 107 83 79 70 68 67 62 111
246 218 240 247 247 253 234 195 219 243 311 318 301 294 301 317 330 339 30 56 121 141 138 133 68 97 112 105 99 93 88 82 111 157 156 155 149 143 141 135 133 131 151 153 139 136 138 90 90 68 52 57 70 72
280 261 252 244 274 325 306 250 292 285 303 304 297 298 324 354 289 352 291 80 133 148 142 125 85 112 126 131 127 120 112 105 102 107 115 121 129 135 138 139 124 100 122 137 136 142 147 113 99 86 43 46 68 69
271 264 300 304 353 355 23 278 316 25 107 350 20 34 23 12 2 25 112 155 135 144 126 112 103 91 93 95 101 123 141 147 146 144 136 133 137 140 141 147 136 122 131 154 140 142 143 112 106 68 49 88 69 61
288 312 306 312 332 7 352 335 312 6 75 39 31 38 9 21 29 34 66 137 154 163 130 124 108 94 102 82 85 84 90 99 105 112 117 172 195 204 190 161 155 153 153 166 161 151 148 151 123 49 71 33 28 108